275  
FPUS83 KFGF 050510  
OPUFGF  
PRAIRIE TO PINES WEATHER ROUNDUP  
NATIONAL WEATHER SERVICE EASTERN NORTH DAKOTA/GRAND FORKS ND  
1200 AM CDT SUN APR 05 2020  
 
**SATELLITE DATA USED TO AUGMENT SKY COVER AT AUTOMATED STATIONS**  
***** WEATHER ACROSS EASTERN NORTH DAKOTA *****  
 
CITY SKY/WX TMP DP RH WIND PRES REMARKS  
GRAND FORKS CLOUDY 23 17 78 E6 30.08F WCI 16  
GRND FORKS AFB CLOUDY 23 19 84 SE5 30.07F WCI 17  
GRND FORKS NWS N/A 26 22 87 SE5 30.04F WCI 20  
BUXTON NOT AVBL  
DEVILS LAKE FAIR 23 18 81 E8 30.01F WCI 14  
FARGO CLOUDY 34 26 72 SE9 30.07F  
WAHPETON ARPT N/A 34 28 80 SE12 30.08F  

 
 
***** WEATHER ACROSS CENTRAL AND WESTERN NORTH DAKOTA *****  
 
CITY SKY/WX TMP DP RH WIND PRES REMARKS  
JAMESTOWN FAIR 28 22 78 SE12 29.97F WCI 18  
BISMARCK FAIR 28 26 92 NE6 29.95S WCI 22  
MINOT FAIR 29 25 85 SE7 29.92S WCI 22  
MINOT AFB FAIR 27 26 94 SE7 29.91S WCI 20  
GARRISON N/A 28 27 96 S7 29.92S WCI 21  
WILLISTON NOT AVBL  
DICKINSON FAIR 30 21 69 N7 29.89S WCI 23  
HETTINGER FAIR 27 22 81 NE9 29.92S WCI 18  

 
 
***** OTHER OBSERVATIONS NORTHEAST NORTH DAKOTA *****  
 
CITY SKY/WX TMP DP RH WIND PRES REMARKS  
WALHALLA CLOUDY 25 19 80 SE3 30.07F  
LANGDON CLOUDY 25 21 86 SE13 30.02F WCI 13  
CAVALIER CLOUDY 25 19 80 SE3 30.08F  
GRAFTON FAIR 23 21 93 CALM 30.10F  
CANDO CLOUDY 23 19 86 SE12 30.02F WCI 12  
FORT TOTTEN N/A 24 20 85 SE7 29.95S WCI 16  
ROLLA CLOUDY 23 19 86 S12 29.98F WCI 12  
RUGBY CLOUDY 27 23 86 SE14 29.97S WCI 15  
***** THE ABOVE OBSERVATIONS ARE NON NWS ARE NOT QUALITY  
CONTROLLED AND MAY MIS-REPORT RAIN FOR SNOW...  

 
 
***** OTHER OBSERVATIONS SOUTHEAST NORTH DAKOTA *****  
 
CITY SKY/WX TMP DP RH WIND PRES REMARKS  
COOPERSTOWN CLOUDY 30 30 100 SE15 30.02F WCI 19  
VALLEY CITY FAIR 28 28 100 SE12 30.03F WCI 18  
OAKES MOCLDY 27 25 93 E12 30.01F WCI 16  
GWINNER MOCLDY 28 28 100 SE12 30.03F WCI 18  
SHEYENNE NWR N/A 32 31 98 SE12 29.95S WCI 23  
BUFFALO NOT AVBL  
WYNDMERE NOT AVBL  
***** THE ABOVE OBSERVATIONS ARE NON NWS ARE NOT QUALITY  
CONTROLLED AND MAY MIS-REPORT RAIN FOR SNOW...  

 
 
***** WEATHER ACROSS NORTHERN MINNESOTA *****  
 
CITY SKY/WX TMP DP RH WIND PRES REMARKS  
FLAG ISLAND N/A 25 19 80 E7 30.11F WCI 17  
WARROAD CLOUDY 27 23 86 CALM 30.12R  
ROSEAU FAIR 28 25 86 E3 30.11S  
HALLOCK FAIR 25 19 80 SE3 30.09F  
THF RVR FALLS MOCLDY 24 19 81 E7 30.10F WCI 16  
HALSTAD NOT AVBL  
FOSSTON CLOUDY 30 21 69 SE6 30.10S WCI 24  
BAUDETTE CLOUDY 28 24 85 E6 30.11F WCI 22  
WASKISH N/A 28 25 86 CALM 30.14R  
CROOKSTON FAIR 25 19 80 SE5 30.09F WCI 19  

 
***** WEATHER ACROSS CENTRAL AND WEST MINNESOTA *****  
 
CITY SKY/WX TMP DP RH WIND PRES REMARKS  
BEMIDJI FAIR 26 18 70 E5 30.12S WCI 21  
PARK RAPIDS CLOUDY 30 22 72 SE3 30.10F  
WADENA MOCLDY 28 25 86 CALM N/A  
DETROIT LAKES FAIR 32 28 86 SE8 30.10S WCI 25  
MOORHEAD CLOUDY 36 25 64 SE9 30.08F  
FERGUS FALLS CLOUDY 36 27 69 SE12 30.10F  
ELBOW LAKE CLOUDY 32 27 82 SE9 30.10S WCI 24  
MORRIS MN CLOUDY 34 27 75 SE10 30.09S  
STAPLES NOT AVBL  
WHEATON CLOUDY 32 28 86 E7 30.10S  

 
***** WEATHER ELSEWHERE ACROSS MINNESOTA *****  
 
CITY SKY/WX TMP DP RH WIND PRES REMARKS  
DULUTH FAIR 28 17 63 CALM 30.15R  
INTRNTL FALLS MOCLDY 26 20 77 CALM 30.13F  
ELY FAIR 21 18 86 CALM 30.15S  
CLOQUET FAIR 27 18 69 CALM 30.15S  
BRAINERD FAIR 29 19 66 CALM 30.14S  
HIBBING MOCLDY 25 20 81 CALM 30.14S  
ALEXANDRIA CLOUDY 33 25 72 E9 30.11S  
SAINT CLOUD CLOUDY 31 24 75 CALM 30.14S  
MINNEAPOLIS FAIR 35 26 69 SE7 30.16F  

 
 
***** WEATHER ACROSS SOUTH DAKOTA *****  
 
CITY SKY/WX TMP DP RH WIND PRES REMARKS  
SIOUX FALLS FAIR 39 24 55 S13 30.05F  
BROOKINGS FAIR 34 26 72 S10 30.05R  
WATERTOWN FAIR 33 26 75 SE12 30.02S WCI 24  
HURON FAIR 37 28 70 SE12G21 30.00S  
SISSETON N/A 30 27 88 SE6 30.05S WCI 24  
ABERDEEN FAIR 32 27 81 SE9 29.99F WCI 24  
MITCHELL FAIR 37 26 64 S10 30.03R  
PIERRE FAIR 36 23 59 SE3 29.92R  
MOBRIDGE FAIR 32 25 75 SE5 29.91S  
RAPID CITY FAIR 28 22 78 CALM 29.90R  

 
 
***** SOME WEATHER IN NEARBY STATES *****  
 
CITY SKY/WX TMP DP RH WIND PRES REMARKS  
GLASGOW MT FAIR 27 20 75 NE10 29.91S WCI 17  
GREAT FALLS MT FAIR 26 16 65 NE10 29.77F WCI 16  
CHEYENNE WY FAIR 42 23 46 S13 29.83S  
SCOTTSBLUFF NE FAIR 42 26 53 E15 29.83R  
OMAHA NE FAIR 38 27 64 SE8 30.12S  
DES MOINES IA MOCLDY 40 26 57 NE3 30.14S  
DAVENPORT IA FAIR 40 26 57 N7 30.14S  
CHICAGO IL MOCLDY 37 33 85 NE3 30.14R  
EAU CLAIRE WI FAIR 27 21 78 CALM 30.16S  
LA CROSSE WI FAIR 31 24 75 CALM 30.17S  

 
 
***** SOME NATIONAL WEATHER *****  
 
CITY SKY/WX TMP DP RH WIND PRES REMARKS  
LA GUARDIA NY CLOUDY 48 42 80 S5 30.03S  
RALEIGH NC FAIR 54 45 71 E7 30.06R  
ATLANTA GA MOCLDY 67 41 38 E5 29.97R  
NEW ORLEANS LA CLOUDY 66 59 78 CALM 29.97R  
OKLAHOMA CITY CLOUDY 41 37 86 E7 30.07S  
ALBUQUERQUE NM FAIR 60 18 19 W13G23 29.85R  
SALT LAKE CITY MOCLDY 51 29 42 SE8 29.63S  
LOS ANGELES CA MOCLDY 60 50 69 W7 29.90R  
BOISE ID LGT RAIN 47 39 74 E12 29.64S  
SEATTLE WA CLOUDY 47 35 63 N10 29.63S  

 
 
*** WEATHER ACROSS MANITOBA...SASKATCHEWAN AND ONTARIO ***  
***ONTARIO***  
 
CITY SKY/WX TMP DP RH WIND PRES REMARKS  
GERALDTON CLEAR 19 14 79 SW6 30.09R WCI 11  
THUNDER BAY CLEAR 25 19 80 SW2 30.17R  
SIOUX LOOKOUT PTCLDY 14 12 92 CALM 30.14R  
TORONTO CLOUDY 45 41 87 S10 30.00S  
BIG TROUT LK FLURRIES 23 19 86 W9 30.04S WCI 13  
PICKLE LAKE CLEAR 19 12 73 W9 30.09S WCI 9  
DRYDEN CLEAR 23 14 68 W2 30.12S  
KENORA PTCLDY 23 19 86 S6 30.11F WCI 16  

 
*** MANITOBA***  
 
CITY SKY/WX TMP DP RH WIND PRES REMARKS  
BRANDON CLOUDY 23 16 74 E7 30.00S WCI 15  
DAUPHIN PTCLDY 16 12 86 S6 30.02F WCI 7  
ISLAND LAKE FLURRIES 19 14 79 W9 30.10R WCI 9  
PILOT MOUND NOT AVBL  
THE PAS PTCLDY 7 0 72 CALM 30.08F  
THOMPSON PTCLDY 10 7 85 W2 30.07S  
WINNIPEG MOCLDY 23 12 63 SE7 30.09F WCI 15  
LYNN LAKE CLEAR 5 0 78 W7 30.05F WCI -7  
CHURCHILL FLURRIES 14 10 85 E13 30.05S WCI 0  
GILLAM FLURRIES 10 9 92 W7 30.02R WCI 0  

 
***SASKATCHEWAN***  
 
CITY SKY/WX TMP DP RH WIND PRES REMARKS  
ESTEVAN CLEAR 25 23 93 NE5 29.92R WCI 19  
KINDERSLEY FLURRIES 9 7 92 E8 29.95F WCI -4  
LLOYDMINSTER CLEAR 9 5 85 CALM 29.99S  
PRINCE ALBERT FLURRIES 19 14 79 NE5 30.04F WCI 13  
REGINA MOCLDY 18 16 93 W8 29.93R WCI 7  
YORKTON CLOUDY 23 19 86 SE10 29.93F W  
 
CLICK HERE TO GO TO PREVIOUS BULLETINS.

The Nexlab ND Page
The Nexlab MN Page Main Text Page